TimeCDT,TemperatureF,Dew PointF,Humidity,Sea Level PressureIn,VisibilityMPH,Wind Direction,Wind SpeedMPH,Gust SpeedMPH,PrecipitationIn,Events,Conditions,WindDirDegrees,DateUTC
12:15 AM,50.0,50.0,100,29.90,4.0,SSE,24.2,28.8,N/A,Rain,Rain,160,2012-10-13 05:15:00
1:35 AM,51.8,51.8,100,29.86,10.0,South,12.7,-,N/A,,Clear,170,2012-10-13 06:35:00
2:15 AM,53.6,53.6,100,29.86,7.0,SSW,13.8,-,N/A,,Overcast,200,2012-10-13 07:15:00
2:35 AM,51.8,51.8,100,29.85,5.0,SW,12.7,-,N/A,,Overcast,220,2012-10-13 07:35:00
2:55 AM,51.8,51.8,100,29.86,7.0,South,8.1,-,N/A,,Mostly Cloudy,190,2012-10-13 07:55:00
3:15 AM,50.0,50.0,100,29.86,7.0,South,11.5,-,N/A,,Scattered Clouds,190,2012-10-13 08:15:00
3:35 AM,50.0,50.0,100,29.85,10.0,SW,11.5,-,N/A,,Scattered Clouds,220,2012-10-13 08:35:00
3:55 AM,50.0,50.0,100,29.83,10.0,SW,10.4,-,N/A,,Clear,230,2012-10-13 08:55:00
4:15 AM,50.0,50.0,100,29.84,10.0,South,13.8,-,N/A,,Clear,190,2012-10-13 09:15:00
4:35 AM,50.0,50.0,100,29.82,10.0,SSW,10.4,16.1,N/A,,Clear,210,2012-10-13 09:35:00
5:35 AM,48.2,48.2,100,29.82,7.0,SSW,9.2,-,N/A,,Clear,200,2012-10-13 10:35:00
5:55 AM,46.4,46.4,100,29.82,7.0,SW,9.2,-,N/A,,Clear,220,2012-10-13 10:55:00
6:15 AM,46.4,46.4,100,29.82,7.0,SW,10.4,-,N/A,,Clear,220,2012-10-13 11:15:00
6:35 AM,46.4,46.4,100,29.82,5.0,WSW,8.1,-,N/A,,Clear,240,2012-10-13 11:35:00
6:55 AM,44.6,44.6,100,29.82,5.0,WSW,8.1,-,N/A,,Clear,240,2012-10-13 11:55:00
7:15 AM,44.6,44.6,100,29.81,5.0,SW,9.2,-,N/A,,Clear,230,2012-10-13 12:15:00
7:55 AM,44.6,44.6,100,29.81,7.0,SW,5.8,-,N/A,,Clear,220,2012-10-13 12:55:00
8:15 AM,44.6,44.6,100,29.81,10.0,West,6.9,-,N/A,,Clear,260,2012-10-13 13:15:00
8:35 AM,46.4,46.4,100,29.81,7.0,SW,8.1,-,N/A,,Clear,230,2012-10-13 13:35:00
8:55 AM,46.4,46.4,100,29.82,0.5,SW,8.1,-,N/A,Fog,Fog,220,2012-10-13 13:55:00
9:55 AM,53.6,50.0,88,29.82,10.0,WSW,6.9,-,N/A,,Clear,240,2012-10-13 14:55:00
10:15 AM,55.4,51.8,88,29.81,10.0,West,8.1,-,N/A,,Clear,260,2012-10-13 15:15:00
10:55 AM,60.8,51.8,72,29.80,10.0,West,10.4,-,N/A,,Clear,280,2012-10-13 15:55:00
11:15 AM,62.6,51.8,68,29.79,10.0,NW,13.8,-,N/A,,Clear,320,2012-10-13 16:15:00
11:35 AM,64.4,50.0,59,29.78,10.0,NW,11.5,-,N/A,,Clear,320,2012-10-13 16:35:00
11:55 AM,66.2,48.2,52,29.77,10.0,NNW,16.1,-,N/A,,Clear,340,2012-10-13 16:55:00
12:35 PM,68.0,46.4,46,29.76,10.0,NW,16.1,19.6,N/A,,Clear,320,2012-10-13 17:35:00
12:55 PM,69.8,44.6,40,29.75,10.0,NW,10.4,-,N/A,,Clear,320,2012-10-13 17:55:00
1:15 PM,69.8,44.6,40,29.75,10.0,NW,11.5,17.3,N/A,,Clear,310,2012-10-13 18:15:00
1:35 PM,71.6,42.8,35,29.74,10.0,NNW,9.2,-,N/A,,Clear,330,2012-10-13 18:35:00
1:55 PM,69.8,42.8,38,29.73,10.0,NNW,4.6,-,N/A,,Clear,340,2012-10-13 18:55:00
2:15 PM,71.6,41.0,33,29.71,10.0,NW,3.5,-,N/A,,Clear,310,2012-10-13 19:15:00
2:35 PM,73.4,41.0,31,29.70,10.0,North,3.5,-,N/A,,Clear,10,2012-10-13 19:35:00
3:35 PM,73.4,39.2,29,29.68,10.0,WSW,11.5,17.3,N/A,,Mostly Cloudy,250,2012-10-13 20:35:00
3:55 PM,73.4,39.2,29,29.69,10.0,WSW,11.5,16.1,N/A,,Mostly Cloudy,250,2012-10-13 20:55:00
4:15 PM,73.4,41.0,31,29.69,10.0,NW,13.8,18.4,N/A,,Mostly Cloudy,320,2012-10-13 21:15:00
4:55 PM,71.6,41.0,33,29.68,10.0,NNE,8.1,-,N/A,,Scattered Clouds,30,2012-10-13 21:55:00
5:35 PM,68.0,50.0,52,29.69,10.0,West,29.9,34.5,N/A,,Mostly Cloudy,280,2012-10-13 22:35:00
5:55 PM,60.8,51.8,72,29.71,10.0,West,23.0,-,N/A,,Mostly Cloudy,270,2012-10-13 22:55:00
6:15 PM,59.0,53.6,82,29.74,10.0,NW,13.8,-,N/A,Rain,Light Rain,310,2012-10-13 23:15:00
6:35 PM,57.2,51.8,82,29.76,7.0,NNW,17.3,21.9,N/A,Rain,Light Rain,330,2012-10-13 23:35:00
6:55 PM,55.4,50.0,82,29.74,10.0,SSW,3.5,-,N/A,Rain,Light Rain,210,2012-10-13 23:55:00
7:15 PM,53.6,51.8,94,29.74,10.0,WSW,12.7,-,N/A,Rain,Light Rain,250,2012-10-14 00:15:00
7:35 PM,55.4,51.8,88,29.75,10.0,West,18.4,-,N/A,Rain,Rain,270,2012-10-14 00:35:00
8:15 PM,57.2,50.0,77,29.75,10.0,West,11.5,19.6,N/A,,Mostly Cloudy,260,2012-10-14 01:15:00
9:35 PM,55.4,50.0,82,29.81,10.0,WNW,15.0,-,N/A,,Overcast,290,2012-10-14 02:35:00
9:55 PM,55.4,48.2,77,29.83,10.0,WNW,12.7,-,N/A,Rain,Light Rain,300,2012-10-14 02:55:00
10:15 PM,55.4,48.2,77,29.84,10.0,WNW,16.1,-,N/A,,Overcast,300,2012-10-14 03:15:00
10:55 PM,53.6,46.4,77,29.85,10.0,WNW,16.1,-,N/A,,Mostly Cloudy,300,2012-10-14 03:55:00
11:35 PM,53.6,46.4,77,29.88,10.0,NW,13.8,-,N/A,,Mostly Cloudy,320,2012-10-14 04:35:00